TimeCDT,TemperatureF,Dew PointF,Humidity,Sea Level PressureIn,VisibilityMPH,Wind Direction,Wind SpeedMPH,Gust SpeedMPH,PrecipitationIn,Events,Conditions,WindDirDegrees,DateUTC
12:14 AM,55.4,53.6,94,30.27,10.0,NE,3.5,-,0.02,Rain,Light Rain,40,2013-05-25 05:14:00
12:34 AM,55.4,53.6,94,30.27,10.0,Calm,Calm,-,0.03,Rain,Light Rain,0,2013-05-25 05:34:00
12:54 AM,55.4,53.6,94,30.26,7.0,SSE,6.9,-,0.04,Rain,Light Rain,160,2013-05-25 05:54:00
1:14 AM,55.4,53.6,94,30.25,10.0,ESE,5.8,-,N/A,,Overcast,110,2013-05-25 06:14:00
1:34 AM,55.4,53.6,94,30.25,10.0,ESE,8.1,-,N/A,,Overcast,110,2013-05-25 06:34:00
1:54 AM,55.4,51.8,88,30.26,10.0,SSE,3.5,-,N/A,Rain,Rain,150,2013-05-25 06:54:00
2:14 AM,55.4,51.8,88,30.25,10.0,SE,5.8,-,N/A,,Overcast,130,2013-05-25 07:14:00
2:34 AM,55.4,53.6,94,30.24,10.0,East,5.8,-,N/A,,Overcast,100,2013-05-25 07:34:00
2:54 AM,55.4,53.6,94,30.22,10.0,ESE,8.1,-,N/A,,Overcast,120,2013-05-25 07:54:00
3:14 AM,55.4,51.8,88,30.23,10.0,SE,5.8,-,N/A,,Overcast,140,2013-05-25 08:14:00
3:34 AM,55.4,51.8,88,30.24,10.0,ESE,6.9,-,N/A,,Overcast,110,2013-05-25 08:34:00
3:54 AM,55.4,51.8,88,30.24,10.0,ESE,6.9,-,N/A,,Overcast,110,2013-05-25 08:54:00
4:14 AM,55.4,51.8,88,30.25,10.0,SE,8.1,-,N/A,,Overcast,130,2013-05-25 09:14:00
4:34 AM,55.4,51.8,88,30.25,10.0,ESE,8.1,-,N/A,,Overcast,120,2013-05-25 09:34:00
4:54 AM,55.4,51.8,88,30.25,10.0,ESE,8.1,-,N/A,,Overcast,110,2013-05-25 09:54:00
5:14 AM,55.4,51.8,88,30.25,10.0,ESE,9.2,-,N/A,,Overcast,110,2013-05-25 10:14:00
5:34 AM,55.4,50.0,82,30.24,10.0,ESE,9.2,-,N/A,,Overcast,110,2013-05-25 10:34:00
5:54 AM,55.4,48.2,77,30.24,10.0,ESE,9.2,-,N/A,,Overcast,120,2013-05-25 10:54:00
6:14 AM,55.4,48.2,77,30.23,10.0,East,8.1,-,N/A,,Overcast,100,2013-05-25 11:14:00
6:34 AM,55.4,48.2,77,30.24,10.0,ESE,8.1,-,N/A,,Overcast,120,2013-05-25 11:34:00
6:45 AM,55.4,48.2,77,30.25,10.0,ESE,10.4,-,N/A,,Overcast,120,2013-05-25 11:45:00
6:54 AM,55.4,48.2,77,30.26,10.0,SE,8.1,16.1,N/A,,Overcast,130,2013-05-25 11:54:00
7:50 AM,55.4,48.2,77,30.25,10.0,ESE,10.4,-,N/A,,Overcast,110,2013-05-25 12:50:00
8:45 AM,57.2,48.2,72,30.24,10.0,ESE,11.5,16.1,N/A,,Overcast,120,2013-05-25 13:45:00
9:55 AM,59.0,48.2,67,30.25,10.0,SE,11.5,-,N/A,,Mostly Cloudy,130,2013-05-25 14:55:00
10:45 AM,62.6,46.4,55,30.24,10.0,ESE,16.1,20.7,N/A,,Mostly Cloudy,120,2013-05-25 15:45:00
11:45 AM,64.4,46.4,52,30.25,10.0,SSE,15.0,20.7,N/A,,Mostly Cloudy,150,2013-05-25 16:45:00
12:45 PM,64.4,46.4,52,30.25,10.0,SSE,15.0,26.5,N/A,,Overcast,160,2013-05-25 17:45:00
1:45 PM,64.4,46.4,52,30.26,10.0,SSE,17.3,24.2,N/A,,Overcast,160,2013-05-25 18:45:00
2:45 PM,46.4,44.6,93,30.26,10.0,SE,17.3,24.2,N/A,,Overcast,130,2013-05-25 19:45:00
4:45 PM,62.6,44.6,52,30.24,10.0,ESE,16.1,19.6,N/A,,Overcast,110,2013-05-25 21:45:00
5:55 PM,62.6,46.4,55,30.23,10.0,ESE,13.8,23.0,N/A,,Overcast,120,2013-05-25 22:55:00
6:45 PM,62.6,46.4,55,30.23,10.0,ESE,11.5,-,N/A,,Overcast,110,2013-05-25 23:45:00
7:50 PM,60.8,46.4,59,30.24,10.0,ESE,11.5,-,N/A,,Overcast,120,2013-05-26 00:50:00
8:45 PM,60.8,46.4,59,30.23,10.0,ESE,9.2,-,N/A,,Overcast,120,2013-05-26 01:45:00
9:14 PM,60.8,46.4,59,30.23,10.0,ESE,10.4,-,N/A,,Overcast,120,2013-05-26 02:14:00
9:34 PM,60.8,48.2,63,30.24,10.0,East,5.8,-,N/A,,Overcast,100,2013-05-26 02:34:00
9:45 PM,59.0,48.2,67,30.25,10.0,ESE,9.2,-,N/A,,Overcast,110,2013-05-26 02:45:00
9:54 PM,59.0,48.2,67,30.25,10.0,ESE,9.2,-,N/A,,Overcast,110,2013-05-26 02:54:00
10:14 PM,59.0,48.2,67,30.24,10.0,ESE,8.1,-,N/A,,Overcast,110,2013-05-26 03:14:00
10:34 PM,59.0,48.2,67,30.25,10.0,ESE,6.9,-,N/A,,Overcast,120,2013-05-26 03:34:00
10:54 PM,59.0,46.4,63,30.25,10.0,SE,8.1,-,N/A,,Overcast,130,2013-05-26 03:54:00
11:14 PM,59.0,46.4,63,30.25,10.0,ESE,9.2,-,N/A,,Overcast,120,2013-05-26 04:14:00
11:34 PM,59.0,46.4,63,30.24,10.0,ESE,10.4,-,N/A,,Overcast,120,2013-05-26 04:34:00
11:54 PM,57.2,48.2,72,30.24,10.0,ESE,5.8,-,N/A,,Overcast,120,2013-05-26 04:54:00